Showing default

ORBCOMM FM 103, 40091

Orbit data source: Space-Track

ORBCOMM FM 103, 40091 is a payload satellite owned by Orbcomm (US) in LEO that was launched on Mon, 14 Jul 2014 UTC via an FALCON 9 launch vehicle from the Air Force Eastern Test Range (AFETR). Payload-class satellites include a variety of spacecraft equipped with specific instruments for various scientific and technological missions. These include communications satellites like Starlink; space stations such as the ISS; scientific satellites like the Hubble; Earth observation satellites from companies like Planet Labs, Umbra, and HawkEye 360; GPS; miniature CubeSats for education and research; and military/defense satellites.

Loading next visibility...
Identifier
40091, 2014-040F
Orbit
LEO
Country
Flag of USUS / ORB
Related business
Manufacturer
SNC Louisville
Mission
Non-operational Commercial Communications
Bus & Motor
SN-100A, Unknown motor
Mass
172 kg wet, 158 kg dry
Launch date (UTC)
2014-07-14 (12 years ago)
Launch vehicle
FALCON 9
Launch site
Air Force Eastern Test Range (AFETR)
Object type
Payload
Rocket body
Debris
Shape & HBR
Box + 1 Pan + 1 Ant, 5.3 m
Radar Cross Section
2.222 m², Medium (>0.1 m² and < 1m²)

Expand to show TLE details & history
Last TLE update: 1 day ago

TLE from 1 day ago
0 ORBCOMM FM 103
1 40091U 14040F   26262.33783054  .00000230  00000-0  84733-4 0  9998
2 40091  47.0069   7.9379 0002361 231.5442 128.5232 14.58921971631134
Epoch: 2026-09-19T08:06Z
TLE epoch observation values (Epoch: 2026-09-19T08:06:28.558Z)
Latitude
-0.00004°
Longitude
-111.92894°
Altitude
697.914 km
Speed
7.508 km/s
True Right ascension
00h 31m 45s
True Declination
0° 00' 00"
Sunlit
Object was in full shadow at epoch
Visualization orbit readout
Latitude
Unknown
Longitude
Unknown
Altitude
Unknown
Speed
Unknown
Apparent Right ascension
Unknown
Apparent Declination
Unknown
Sunlit
N/A
Visualization observer readout
Local Sidereal Time
04:41:59
Azimuth
Unknown
Elevation
Unknown
Doppler factor
Unknown
Orbital elements
Apogee altitude
699.562 km
Perigee altitude
696.22 km
Semi-major axis
7,076.028 km
Eccentricity
0.00024
Inclination
47.0069°
RAAN
7.9379°
Arg. of periapsis
231.5442°
True anomaly
128.54436°
Mean anomaly
128.5232°
Eccentric anomaly
128.53378°
Mean motion
3.64635 °/min
Orbital period
98.73 mins
BSTAR
0.000084733
Loading maneuver chart data...
Computing Atmospheric mass density...
Loading historical data...
Loading historical data...
Loading historical data...
Loading historical data...
Loading historical data...
Loading historical data...
Loading historical data...

Documentation

Showing up to 5 results
|